FGSL

Malabo

Airport
ICAO code
FGSL
IATA Code
SSG
Summary
ICAO Region
AFI
ICAO Territory
Location

Punta Europa, Bioko Island, Bioko Island

Serving
Malabo
Elevation
76 ft
Coordinates
3° 45' 19" N , 8° 42' 31" E
KCC
Metar
FGSL 240400Z 24005KT 9999 FEW010 BKN050 27/25 Q1010 NOSIG

Malabo Airport or Saint Isabel Airport is an airport located at Punta Europa, Bioko Island, Equatorial Guinea.

Climatology

Tropical Monsoon climate (Köppen climate classification Am)

Runways

Designator Length Width Surface Rops
5/23 2940 46 CON Yes/Yes

Airport map

Aerial View

SKYbrary Partners:

Safety knowledge contributed by: